User: anonymous   Login
Location: Équennes
(49.7375°N, 1.9622°E)
Time: 19:43:26
(UTC+00:00)
Language:

OBJECT U - Orbit

View from above orbital plane
View from above orbital plane
View from above satellite
View from above satellite

Ground track
Ground track

The orbit data is extracted from the following two-line orbital elements,

1 47950U 21022U   24058.48181831  .00025391  00000-0  10032-2 0  9993
2 47950  97.4694 318.8971 0014746 153.0660 207.1346 15.25387191161841
Epoch (UTC): 27 February 2024 11:33:49
Eccentricity: 0.0014746
inclination: 97.4694°
perigee height: 479 km
apogee height: 500 km
right ascension of ascending node: 318.8971°
argument of perigee: 153.0660°
revolutions per day: 15.25387191
mean anomaly at epoch: 207.1346°
orbit number at epoch: 16184

The dashed part of the orbit path shows where the satellite is in the earth's shadow,  

DLR